Voltar ao catálogo

COSMOS 2251 DEB

AtivoLEO
NORAD 35661·DEBRIS·🇷🇺 Russia

Lançado Jun 16, 1993 de Plesetsk Cosmodrome

Loading…

Próximas Passagens (próximas 24 horas)

TLE

AtualizadoSource: Space-Track

Época: Sep 12, 2026, 16:52 UTC

1 35661U 93036APC 26255.70340677  .00004130  00000-0  40563-3 0  9995
2 35661  74.0093 252.0141 0085980 284.7276  74.4388 14.89768026919449

Acompanhe COSMOS 2251 DEB em tempo real com AllMySat

Download on the App Store